Temp
25 24 24 24 25 26 27 27 27 28 28 27 27 26 26 25 25 29 30 29 29 27 27 29 28 29 29 30 31 31 31 31 30 30 30 30 31 30 26 24 25 25 26 27 26 25 24 23 23 23 22 21 20 20 19 18 18 18 17 17 18 18 18 18 18 18 18 18 18 18 19 19 19 19 19 19 19 19 20 20 20 19 19 19 19 19
25 23 24 26 26 27 27 27 27 27 27 26 26 25 25 25 26 29 29 28 29 27 26 29 28 28 29 29 30 31 31 31 30 30 30 30 31 31 28 25 25 26 27 27 26 26 24 23 23 22 22 21 20 20 19 19 18 18 17 17 17 18 18 18 18 19 19 18 18 18 18 19 19 19 19 18 18 19 19 20 20 19 19 19 19 19
23 23 25 27 27 27 27 27 27 26 25 25 26 24 23 25 27 28 29 28 28 26 26 28 28 28 29 29 30 30 30 31 31 30 30 30 30 31 31 28 27 27 27 26 25 25 24 24 23 22 22 21 21 20 20 19 19 18 18 17 17 18 18 18 19 19 19 18 18 18 18 19 18 18 19 19 18 19 19 19 19 19 19 19 19 19
22 24 26 27 27 26 25 26 25 25 25 25 25 24 23 26 26 25 27 28 28 27 27 28 27 27 29 29 29 30 30 31 31 31 30 31 31 31 31 30 29 28 26 25 24 24 24 24 23 23 22 21 21 21 20 20 19 18 18 17 18 18 18 19 19 19 19 18 18 18 18 18 18 18 19 19 19 19 19 19 19 19 19 19 19 19
24 26 28 27 27 25 24 25 25 24 24 25 25 24 24 26 26 26 27 28 27 27 27 26 24 25 28 28 29 30 30 30 31 31 31 31 31 31 31 31 30 29 27 25 24 23 24 25 24 23 22 22 21 21 21 20 19 19 18 18 18 18 18 19 19 19 18 17 17 18 18 18 18 17 17 18 18 19 19 19 19 19 19 19 19 19
25 27 27 26 26 25 24 24 24 24 23 24 25 26 26 26 27 27 27 26 24 24 27 27 22 22 27 28 29 31 31 30 30 31 31 31 31 31 31 30 30 30 28 26 25 24 24 25 24 23 22 22 22 21 21 20 19 19 19 18 18 18 19 19 18 18 18 17 17 18 17 17 17 16 17 18 19 19 19 19 19 19 19 19 19 19
26 27 26 25 25 25 25 24 25 25 23 22 25 27 27 27 26 26 26 25 22 22 27 28 22 21 25 27 30 31 30 31 31 30 30 31 31 31 31 31 30 30 29 26 25 25 24 24 24 23 23 23 22 22 21 21 20 19 19 18 18 18 18 18 18 18 18 17 18 18 17 17 17 17 18 18 19 20 19 20 20 19 19 19 19 19
26 26 25 25 25 24 24 24 25 26 23 23 27 28 27 26 26 26 25 24 23 24 26 26 25 22 22 25 30 30 29 30 30 30 30 31 30 30 30 31 31 30 30 27 26 25 24 24 24 22 22 21 21 22 21 21 20 20 20 19 18 18 18 18 18 18 17 17 17 17 17 17 17 18 18 18 19 20 20 20 20 19 19 19 19 19
26 25 24 24 24 24 24 25 26 26 24 25 28 27 26 27 26 26 25 24 24 24 22 24 25 22 21 25 29 30 28 28 29 30 29 29 29 28 28 29 30 30 30 28 25 25 24 22 22 20 18 17 18 20 21 21 21 20 20 20 19 19 18 18 18 18 17 17 17 17 17 18 17 17 18 19 19 20 20 20 20 20 20 19 19 19
26 25 25 25 24 24 25 26 27 26 25 26 27 26 26 26 26 26 25 24 24 22 21 22 24 22 21 23 27 28 27 27 28 27 26 26 26 26 26 27 28 30 30 27 24 24 23 20 19 18 17 18 19 20 20 20 20 20 20 20 19 19 18 18 18 17 17 17 17 17 18 18 18 18 18 19 20 20 20 20 20 20 20 19 19 19
26 26 26 25 25 25 26 26 27 26 26 26 26 25 25 25 26 26 25 24 22 21 21 22 24 23 21 23 25 26 25 26 26 24 23 24 24 25 26 25 27 29 29 26 24 25 24 19 17 17 17 18 19 18 19 20 20 20 20 20 19 19 18 18 18 17 17 17 18 18 18 18 18 18 19 19 19 19 20 20 20 20 20 20 19 19
26 25 24 25 26 26 26 26 26 27 26 26 25 25 24 23 24 23 23 23 21 20 22 23 24 23 21 22 25 26 26 26 25 24 23 24 24 25 26 26 27 28 28 27 25 25 24 19 18 19 18 18 18 17 18 19 19 19 19 18 19 19 18 18 17 17 17 17 17 18 18 18 17 17 18 19 18 19 20 20 20 20 20 20 19 19
25 25 25 25 25 26 25 25 25 26 26 25 25 23 22 21 21 21 21 21 21 21 23 24 24 23 22 24 25 25 25 25 24 24 23 23 23 24 26 26 27 26 25 24 24 24 23 20 19 20 19 19 18 18 18 18 18 18 17 16 16 18 19 18 17 17 16 17 17 17 18 19 17 17 19 19 19 20 21 20 20 20 20 20 19 19
23 24 25 25 25 26 25 24 23 23 24 24 23 22 21 21 20 20 21 21 21 21 23 24 24 22 22 24 25 25 24 24 24 22 21 21 22 23 25 26 25 24 23 22 22 23 23 20 20 21 21 20 20 19 18 17 17 17 17 16 16 17 18 17 17 17 16 16 17 17 18 19 17 18 20 20 20 21 21 21 21 20 20 20 20 19
21 22 24 25 24 25 25 25 25 25 25 25 25 24 22 21 21 20 21 21 21 21 22 23 23 21 22 23 24 24 24 24 23 22 22 22 22 22 24 24 24 24 23 22 22 23 22 21 21 21 21 21 20 20 18 17 16 16 16 17 16 16 16 15 15 16 16 17 17 17 18 18 17 18 20 20 20 21 21 21 21 21 21 20 20 20
21 21 24 26 26 26 25 26 27 26 24 25 27 25 22 23 23 21 21 21 21 21 21 22 22 23 24 23 23 23 22 22 22 22 23 22 22 22 22 22 23 23 22 22 22 21 21 21 22 21 21 21 21 20 19 18 17 16 16 15 15 15 16 15 15 15 17 17 17 17 18 17 17 19 20 20 20 21 21 21 20 21 21 20 20 20
21 21 25 26 26 27 26 26 27 25 24 25 25 23 24 27 25 21 21 21 21 20 21 21 22 24 24 23 23 22 21 21 22 22 22 22 22 21 21 21 22 22 21 21 21 21 21 22 22 21 21 21 21 20 19 19 17 16 15 15 15 15 15 15 15 16 16 17 17 17 18 18 18 20 20 20 20 20 20 20 20 20 20 20 20 19
22 21 24 26 24 26 27 26 27 27 26 24 23 24 26 27 25 23 21 21 21 20 21 21 21 22 22 21 21 21 21 20 21 22 22 21 21 20 20 20 21 21 21 21 21 21 21 21 22 21 21 21 21 20 19 18 16 15 15 15 15 15 16 16 17 16 16 17 17 17 18 18 19 20 20 20 20 19 20 20 20 20 20 20 19 19
23 21 23 25 25 26 27 26 25 26 27 26 25 26 26 23 22 22 21 20 21 20 21 21 21 21 21 20 21 21 20 20 20 21 21 21 21 20 20 20 21 21 21 21 21 21 21 21 21 21 21 21 21 20 18 16 15 16 16 15 15 16 17 18 18 16 16 17 17 16 17 18 19 19 20 19 19 19 19 20 20 19 19 19 19 19
24 21 21 25 26 25 26 24 23 24 26 26 26 27 25 23 22 22 21 21 21 20 21 21 21 21 20 21 21 21 21 20 20 21 20 20 21 21 21 21 20 21 20 20 20 20 20 21 21 20 20 21 21 20 18 16 15 15 15 15 15 16 17 18 17 16 16 17 17 17 17 18 19 19 19 19 19 19 19 19 19 19 19 19 19 19
23 22 21 23 25 24 23 24 24 24 24 24 24 23 24 24 24 23 22 22 21 21 20 21 21 20 20 21 21 21 21 20 20 21 20 20 20 20 20 20 20 20 20 20 20 20 20 20 21 20 20 20 20 19 17 16 15 15 16 16 16 16 16 16 16 15 16 17 17 18 18 18 18 19 19 19 19 19 19 19 19 19 19 19 19 19
22 22 21 21 22 22 23 25 26 26 26 25 24 23 23 23 23 22 21 22 22 21 20 21 20 18 19 21 21 21 20 20 20 20 20 19 19 19 18 18 18 18 19 19 19 19 19 19 19 19 19 19 19 18 18 17 16 17 18 17 16 16 16 16 15 15 16 16 17 17 18 18 18 19 19 19 19 19 19 19 19 19 18 18 19 19
22 22 21 20 21 22 23 25 26 26 26 26 26 26 25 24 23 21 20 21 21 21 21 21 20 19 19 20 21 20 20 20 20 20 19 19 18 17 17 16 16 17 18 18 18 17 17 17 17 18 18 18 18 18 18 18 17 17 18 17 17 17 17 16 16 16 16 16 17 17 17 18 18 18 19 19 19 19 19 19 19 19 18 18 18 19
21 21 21 21 22 23 23 24 25 26 25 25 25 26 26 24 23 23 22 21 21 21 21 20 20 19 19 20 20 20 19 19 19 18 18 17 17 16 16 15 16 16 16 17 17 17 17 17 17 17 17 17 18 18 17 18 18 17 17 17 18 18 17 17 17 17 17 17 17 17 17 18 18 18 18 18 18 18 18 18 18 18 18 18 18 19
21 21 21 20 20 21 21 21 22 24 24 24 24 25 24 24 25 24 23 21 20 21 21 20 19 19 18 19 19 19 18 18 17 17 16 16 16 16 15 15 15 15 15 16 16 16 16 17 16 17 17 16 16 17 17 17 16 16 16 16 17 18 18 18 18 18 18 17 17 17 17 18 18 18 18 18 18 18 18 18 18 18 18 18 19 19
20 19 20 20 19 19 18 18 18 19 21 23 23 22 21 22 24 23 22 20 20 21 21 20 19 18 18 19 18 18 18 17 16 16 15 15 15 15 14 14 14 15 15 15 15 14 15 15 15 16 16 16 16 16 16 16 15 15 15 15 17 18 19 18 18 18 18 18 17 17 17 17 17 17 18 18 18 18 18 18 18 18 19 19 19 18
19 18 18 18 18 18 18 17 17 18 19 20 20 19 19 21 22 22 21 20 20 21 20 18 18 18 18 18 18 17 17 16 15 15 14 14 15 15 14 14 14 14 14 14 14 14 13 13 14 14 14 14 14 14 14 14 14 14 14 14 16 18 18 18 18 18 18 18 17 16 16 17 17 17 17 18 18 18 18 18 18 18 19 18 18 18
19 19 18 17 18 19 19 19 18 18 18 17 17 17 19 21 21 20 20 20 20 21 20 18 18 18 17 17 16 16 15 14 14 13 13 14 14 15 15 15 14 14 14 14 13 13 13 12 12 12 12 12 12 12 12 13 14 14 14 14 15 16 17 18 18 18 18 18 17 16 16 16 16 17 17 17 18 18 18 18 18 18 18 18 18 18
19 19 19 18 17 17 19 20 19 18 18 18 18 17 18 20 19 18 19 19 18 18 19 18 18 17 15 15 14 15 15 13 12 12 13 13 13 14 15 15 14 14 14 13 12 12 12 11 11 11 11 11 11 11 11 11 13 14 14 14 15 16 16 18 18 18 17 17 16 15 15 16 16 16 17 17 18 18 18 18 18 18 18 18 18 18
18 18 17 18 17 16 18 20 20 19 19 19 19 18 19 19 19 18 18 18 17 17 17 17 16 14 13 13 13 14 14 13 12 12 12 12 12 13 14 14 13 13 13 12 11 11 10 10 10 10 10 10 9 10 10 10 11 12 12 13 14 14 15 16 17 16 15 15 15 15 16 16 15 16 16 17 17 18 18 18 18 18 18 18 18 18
18 17 17 17 16 15 17 19 20 20 20 18 17 17 18 18 18 17 17 16 16 16 16 16 15 13 12 13 13 13 13 13 12 11 11 11 11 11 12 12 12 11 11 11 10 10 9 9 9 9 9 9 8 9 9 9 9 10 11 12 12 12 13 15 15 15 14 15 15 15 16 16 15 16 16 17 17 17 17 17 17 17 17 17 17 18
18 18 18 17 17 16 16 18 19 19 19 17 15 14 15 16 16 16 15 14 14 14 15 15 15 13 12 13 12 12 12 11 10 10 10 10 9 9 10 10 10 10 10 10 9 9 8 8 8 8 8 8 8 8 8 8 8 8 9 10 11 12 12 12 13 13 13 14 14 14 15 15 15 15 16 16 17 16 16 16 16 16 16 16 16 17
19 19 18 17 17 16 15 17 18 18 17 16 13 12 13 14 14 15 14 13 12 13 14 14 14 13 13 13 12 11 10 9 9 8 9 9 9 8 8 9 9 9 9 9 9 8 8 7 7 7 7 7 7 7 7 7 7 7 8 9 10 11 11 11 11 11 12 12 13 13 13 13 13 13 13 14 14 14 14 14 14 15 15 15 15 15
18 18 18 17 17 16 15 15 17 17 15 13 12 12 12 12 13 13 13 12 12 12 13 13 13 13 13 12 11 9 8 8 8 7 8 8 8 8 8 8 8 8 9 8 8 7 8 7 7 7 7 7 7 6 6 6 7 7 7 8 9 9 9 9 10 10 10 11 11 12 12 12 12 12 12 13 13 13 13 13 13 13 14 14 14 14
17 17 17 17 18 16 14 14 15 15 13 11 12 13 13 12 12 12 12 11 11 11 12 12 12 11 11 10 9 8 8 7 7 7 7 8 8 7 7 7 7 8 8 8 7 7 7 7 7 6 6 6 6 6 6 6 6 7 7 7 8 8 8 8 8 9 9 9 10 10 10 11 11 11 11 12 13 13 14 13 13 12 13 13 13 13
17 17 17 17 17 16 15 14 14 12 11 11 12 12 12 12 12 12 11 10 9 10 11 11 10 10 9 9 8 8 8 7 7 7 7 7 7 7 7 7 7 7 7 7 7 7 7 7 6 6 6 6 6 6 6 6 6 6 6 6 7 7 7 7 7 8 8 8 9 9 9 9 10 10 10 11 12 12 13 13 12 12 12 12 12 12
18 17 17 17 17 17 15 14 12 11 11 11 11 11 11 10 10 11 11 9 8 9 10 10 9 8 8 8 8 8 9 9 8 6 6 7 7 7 7 7 7 7 7 7 7 8 7 7 7 6 6 6 6 6 6 6 6 6 6 6 6 6 6 6 6 7 7 7 8 8 8 9 9 9 9 10 10 10 10 10 11 10 10 11 11 11
17 17 16 16 17 17 15 13 13 13 12 10 10 11 11 10 10 10 10 9 9 9 9 9 9 8 7 8 8 9 10 10 8 6 6 7 7 7 7 7 7 7 7 7 7 7 7 7 7 7 6 5 5 5 6 6 6 6 6 6 6 5 6 6 6 6 6 7 7 7 7 8 8 8 8 9 9 9 9 9 10 10 10 10 10 11
16 16 15 15 16 16 15 14 14 13 11 10 10 10 11 11 10 10 10 10 9 9 9 9 9 9 8 8 9 9 10 10 8 5 6 6 6 7 7 7 7 7 6 6 6 7 7 7 7 7 7 6 5 5 5 6 6 5 5 5 5 5 5 5 5 6 6 6 7 7 7 7 7 7 8 8 8 8 9 9 9 9 10 10 11 11
16 16 15 14 15 15 15 14 13 11 10 9 10 11 11 11 10 10 11 10 8 9 9 9 9 9 9 9 9 8 8 8 7 5 5 6 6 6 7 7 7 6 6 6 6 6 6 7 7 7 7 7 6 6 5 5 5 5 5 5 5 5 5 5 5 5 6 6 6 6 7 7 7 7 7 7 8 8 8 9 9 9 10 11 11 11
15 15 15 14 14 14 14 13 11 10 9 9 10 11 12 11 10 11 11 9 8 9 9 8 8 8 8 8 8 6 5 6 5 4 5 5 5 6 6 6 6 6 6 6 6 6 6 6 6 7 7 7 6 6 6 5 5 5 4 4 4 4 4 5 5 6 6 6 6 6 6 7 7 7 7 7 7 8 8 8 9 9 10 10 10 11
13 13 14 14 14 14 15 13 12 10 9 9 11 12 12 11 10 10 9 8 8 8 7 7 7 7 6 6 6 5 5 5 5 5 5 5 5 5 6 6 6 6 7 7 7 7 6 6 6 6 6 6 6 6 6 5 5 5 4 4 4 4 4 5 5 5 6 6 6 6 6 7 7 7 7 7 7 8 8 8 8 9 9 9 9 10
10 12 13 12 12 14 15 13 12 10 9 10 11 11 10 9 9 8 8 8 8 7 7 6 6 6 5 5 5 5 5 5 5 5 5 5 5 5 6 6 6 6 7 7 7 7 7 7 6 6 6 6 6 5 5 5 5 5 5 4 4 4 5 5 5 5 6 6 6 6 6 7 7 7 7 7 7 7 8 8 9 9 9 9 10 10
10 11 12 11 11 13 12 10 9 9 9 9 10 9 8 8 8 8 8 8 7 7 7 6 6 6 6 5 6 6 5 5 5 5 5 6 6 6 6 6 6 6 6 7 7 7 7 7 7 7 6 6 6 5 5 5 5 5 5 4 5 5 5 5 5 6 6 6 6 7 7 7 6 7 7 7 8 8 8 8 9 9 9 10 10 11
10 11 11 10 10 11 10 9 9 9 9 10 9 9 9 8 9 9 8 8 7 7 7 6 6 6 6 6 6 6 6 6 6 6 6 6 6 6 6 6 6 6 6 7 7 7 7 7 7 7 7 6 6 6 6 5 5 5 5 5 5 5 5 6 6 6 6 6 6 7 7 7 7 7 7 8 8 9 9 9 9 10 10 10 11 11
12 12 12 10 10 10 10 10 10 10 10 10 10 10 10 9 9 9 8 7 7 7 7 7 6 6 6 6 6 6 6 6 6 6 6 6 6 6 6 6 6 6 6 6 6 7 7 7 7 7 7 7 6 6 6 6 6 5 5 5 5 6 6 6 6 6 6 7 7 7 7 8 8 8 8 8 9 9 9 9 10 10 10 11 11 11
14 14 13 12 11 10 9 10 11 11 11 11 11 11 11 10 10 10 9 8 8 7 7 7 7 6 6 6 5 5 5 5 5 6 6 6 6 6 6 6 6 6 6 6 6 7 7 7 7 7 7 7 7 7 7 7 6 6 6 6 6 6 6 6 6 6 7 7 7 7 7 8 8 8 8 9 9 9 9 9 10 10 10 10 10 11
15 15 14 12 12 11 10 11 12 12 12 12 12 12 11 11 10 10 10 9 9 9 8 8 8 7 7 6 6 5 5 5 5 5 6 6 6 7 6 6 6 6 6 6 6 7 7 8 8 8 8 8 7 7 7 7 7 7 7 7 7 6 6 6 6 7 7 7 7 7 7 8 8 9 9 8 8 8 8 8 8 9 8 8 8 8
16 15 14 12 12 11 11 12 12 12 11 12 12 12 12 12 11 11 10 10 9 9 9 9 8 8 8 7 7 6 5 5 6 6 6 7 7 7 7 7 6 6 6 6 7 7 7 8 8 8 8 8 8 8 8 8 8 8 8 7 7 7 7 7 7 7 7 7 7 7 8 8 8 9 9 8 7 7 7 7 7 7 7 6 6 6
15 15 14 14 12 11 11 12 13 12 11 11 11 12 12 12 12 11 11 11 10 10 9 9 9 8 8 8 8 7 6 6 6 6 6 6 7 6 7 7 7 7 7 7 7 7 7 7 8 8 8 8 8 8 8 8 8 8 8 8 7 7 7 7 8 8 7 7 7 7 8 8 8 9 9 9 8 7 7 7 7 7 6 6 6 6
14 14 15 14 13 12 12 13 13 12 11 11 12 12 12 12 12 12 11 11 11 11 11 10 9 9 9 9 9 8 8 7 7 7 7 6 6 6 6 7 7 7 7 7 7 7 7 7 7 7 7 8 8 8 8 8 8 8 8 8 8 8 8 8 8 8 8 7 7 7 8 8 8 9 9 9 9 9 8 7 7 7 7 7 6 6
Height
755 762 763 761 755 750 748 745 743 738 738 744 743 742 741 740 738 729 730 735 737 747 747 741 742 738 734 730 725 721 719 725 730 729 727 728 727 729 741 749 748 750 747 744 746 748 752 755 756 759 761 765 768 770 770 772 775 776 779 780 780 782 784 786 788 791 792 793 796 798 801 802 803 804 806 808 809 809 809 810 811 813 815 816 818 819
755 764 758 750 746 741 741 742 742 743 748 752 750 748 745 742 739 728 731 737 737 747 747 738 740 738 733 730 725 722 722 723 727 729 728 727 726 723 731 742 746 746 743 743 745 746 750 753 754 757 759 762 765 767 769 772 774 777 779 780 780 781 783 785 787 789 791 793 796 799 801 802 802 803 805 808 810 810 809 810 811 813 815 816 817 818
763 762 751 741 739 739 742 743 745 751 756 756 752 753 750 741 736 729 730 736 738 747 746 738 739 737 730 728 726 723 723 721 721 724 725 724 724 722 723 730 736 738 740 743 746 747 748 750 753 756 757 760 763 765 768 771 773 776 777 779 781 781 782 784 786 788 790 794 797 799 800 802 802 802 804 807 809 810 809 810 812 813 814 815 816 817
762 751 741 736 737 743 750 749 752 756 757 757 753 754 751 740 737 735 734 737 739 744 744 740 741 738 731 728 725 722 720 717 715 717 719 719 720 720 718 722 728 733 738 742 747 749 748 748 751 753 755 759 761 763 766 770 772 774 776 778 780 781 782 784 785 788 791 795 798 799 800 801 802 804 805 806 807 808 809 810 811 813 813 814 816 817
749 735 731 734 739 748 754 754 756 760 758 755 752 751 747 739 734 733 736 739 739 742 741 743 749 742 731 730 725 717 715 716 714 714 716 717 716 716 716 718 722 727 734 740 744 748 747 746 748 750 753 756 759 761 765 768 771 773 775 777 778 779 781 783 784 787 789 794 796 797 799 801 801 804 806 807 807 807 808 809 810 812 813 814 815 816
742 731 734 741 744 749 754 754 755 758 758 752 748 746 743 741 736 734 739 742 748 751 736 736 758 750 726 722 720 711 711 714 714 714 715 714 713 715 717 718 720 721 728 735 738 742 745 745 746 748 751 754 757 760 764 768 771 773 775 776 777 778 779 781 783 784 787 790 793 794 795 797 798 802 805 807 806 805 806 807 809 811 812 813 814 816
737 730 737 746 747 750 752 752 750 751 758 755 742 737 738 741 743 743 744 747 755 754 732 729 755 754 729 718 712 709 712 710 709 714 713 711 712 713 714 715 717 719 722 730 734 737 743 745 745 747 750 752 756 760 764 769 771 773 775 775 776 776 777 779 780 782 784 788 791 792 792 793 796 799 803 806 805 804 805 806 808 810 812 813 814 815
736 735 742 746 748 751 752 751 745 744 757 753 735 733 741 742 745 745 745 748 748 742 735 732 743 753 743 724 709 710 717 714 710 713 712 711 712 712 713 713 713 715 716 724 733 736 740 744 745 748 751 754 758 762 765 768 770 772 773 774 775 775 776 777 779 780 783 786 789 792 793 793 796 800 803 804 804 804 805 806 808 810 811 813 814 815
736 741 746 747 750 752 747 743 739 741 752 744 730 737 743 741 742 741 742 745 740 743 750 737 733 752 750 726 710 708 717 722 716 713 714 716 719 719 720 718 714 713 712 719 730 734 738 745 747 750 754 759 762 764 766 767 769 771 772 773 773 774 775 776 777 780 782 785 788 791 793 794 798 802 803 803 804 804 805 806 808 809 811 812 814 816
733 736 738 743 749 747 741 737 735 740 747 739 733 741 742 742 742 742 743 742 740 752 759 741 733 750 749 728 716 714 719 724 720 720 724 725 726 726 726 726 721 714 712 719 729 733 738 746 750 750 753 755 758 760 764 766 768 771 772 773 773 774 775 776 778 780 782 784 786 789 792 794 797 800 802 803 803 805 805 806 808 809 811 812 814 816
730 731 735 739 741 739 735 735 734 738 740 737 740 744 744 744 741 741 742 740 751 760 753 740 731 740 749 733 721 723 725 726 728 734 738 734 734 732 730 732 728 717 714 721 730 732 736 745 747 747 749 751 754 758 761 763 766 769 772 773 774 775 776 777 778 780 782 784 785 787 792 795 797 799 800 801 803 805 805 806 808 809 811 812 814 815
731 738 740 737 735 734 734 735 733 733 735 738 744 747 749 748 745 747 746 747 766 767 745 732 724 732 748 737 723 727 728 727 732 737 739 738 739 736 732 731 726 718 717 721 727 729 733 743 746 745 748 751 754 757 759 759 761 765 771 776 776 777 778 778 780 781 783 785 786 788 792 795 800 802 800 800 803 804 804 805 807 809 811 813 814 816
735 736 735 735 734 732 738 741 737 737 738 741 744 748 756 760 761 766 762 758 766 759 737 726 726 734 739 729 725 730 732 733 734 735 737 738 740 738 731 727 723 722 725 727 731 731 734 743 745 745 749 752 754 756 757 758 758 759 766 775 778 778 778 780 782 784 784 786 787 789 791 793 799 802 799 799 801 801 802 804 806 808 810 812 814 815
742 736 730 735 736 731 736 741 743 744 742 744 744 748 758 764 775 782 772 762 760 750 733 723 732 743 736 728 730 731 732 734 734 736 740 744 745 740 730 726 727 728 732 735 736 734 736 743 745 745 747 750 752 755 757 758 758 757 760 768 775 777 779 781 784 785 785 786 787 789 790 793 799 800 798 798 798 799 801 803 805 807 809 811 813 814
750 749 735 733 733 730 732 732 733 733 735 738 734 737 748 752 765 776 769 765 763 751 736 730 740 746 738 736 736 731 731 733 736 739 740 743 745 741 734 731 731 732 734 736 736 736 738 742 744 744 745 748 750 753 756 758 759 761 763 768 773 777 780 782 785 787 786 787 789 789 790 795 799 799 797 797 798 799 801 803 805 807 809 811 812 813
747 748 729 723 724 724 730 728 722 727 734 732 726 734 744 739 745 758 758 758 763 760 747 738 739 732 726 733 734 736 742 742 744 744 740 742 743 741 740 738 736 737 738 738 738 740 741 742 743 744 746 747 749 751 755 757 759 763 768 772 775 776 778 781 786 788 787 787 789 790 790 795 798 797 796 797 798 800 802 804 806 808 809 811 812 814
746 743 724 721 723 718 724 724 720 729 735 729 730 737 733 724 731 750 756 750 757 770 756 738 736 726 724 740 740 742 751 748 746 745 742 744 744 744 745 743 741 742 741 742 741 741 742 743 744 745 746 747 749 752 754 756 759 763 768 771 772 773 775 779 784 786 787 787 788 789 791 793 795 796 797 797 799 801 803 805 807 808 810 811 813 814
741 744 726 721 729 721 717 720 718 721 726 730 736 730 721 722 727 741 759 760 762 771 754 737 737 729 733 754 752 745 752 754 750 746 745 746 746 749 749 745 744 743 743 744 743 743 744 744 746 746 747 748 749 752 754 757 761 763 765 765 764 765 768 770 775 781 785 787 788 790 790 791 794 795 796 797 799 801 803 805 807 808 810 811 813 814
735 746 734 720 725 721 714 722 727 720 717 724 727 719 723 739 742 743 758 767 767 770 759 742 735 733 743 757 754 749 754 757 753 749 749 750 748 750 750 747 746 745 746 746 745 746 746 745 747 747 748 749 750 753 756 759 762 762 763 762 761 760 760 762 767 774 780 783 787 790 791 791 793 794 796 798 800 802 804 805 807 809 811 812 813 815
730 746 744 724 717 721 722 729 735 729 720 720 721 720 724 734 740 743 745 752 758 762 760 747 739 745 754 754 751 753 754 755 755 752 752 752 750 749 748 748 748 748 748 749 749 749 748 747 748 749 750 750 750 753 756 759 761 761 762 764 763 761 758 759 764 770 776 779 783 787 790 791 792 794 796 798 801 803 804 806 808 810 811 812 814 815
730 743 747 730 718 724 731 728 727 727 724 727 730 731 731 728 731 737 738 739 748 760 762 754 755 763 758 749 751 751 750 753 753 752 753 753 752 752 751 751 751 750 751 751 751 751 751 750 749 750 751 751 752 754 756 759 761 762 762 763 764 762 758 758 762 768 773 776 780 784 788 790 791 794 797 799 802 803 805 807 808 810 812 813 814 816
736 740 742 743 738 733 730 720 714 715 716 720 727 728 729 728 731 743 748 739 738 754 759 750 763 777 761 747 749 749 750 753 752 753 755 755 757 758 758 758 756 755 754 754 754 754 753 753 752 752 752 753 754 756 757 759 761 761 762 763 764 763 761 759 761 767 773 776 779 783 787 790 791 794 797 799 802 803 805 807 809 810 812 813 815 816
736 740 742 748 744 732 726 717 710 713 712 712 716 716 718 722 728 742 755 750 737 741 745 740 754 773 764 751 750 751 753 755 753 755 756 758 763 764 764 763 760 759 758 758 759 759 758 758 757 756 755 755 756 756 757 759 760 761 761 762 764 764 763 761 760 765 771 776 779 783 786 789 791 794 797 799 801 804 806 807 809 811 812 813 815 816
738 745 747 746 739 730 728 724 715 713 717 721 718 713 715 722 726 730 740 751 747 739 748 758 761 764 761 753 752 754 756 758 759 761 762 765 767 767 768 767 764 764 764 763 763 763 762 762 760 759 759 759 758 758 759 759 759 761 761 762 763 764 764 763 761 764 769 774 779 783 786 789 792 794 797 799 801 804 806 807 809 811 812 813 815 816
742 746 748 749 750 746 744 745 737 725 723 726 722 719 722 721 722 726 732 751 759 746 747 762 767 768 764 756 757 760 761 764 766 767 770 772 771 771 772 771 770 769 769 769 768 766 765 764 764 763 762 762 761 761 761 761 762 763 764 764 764 763 764 764 763 764 767 772 778 782 786 789 792 795 797 799 802 804 806 807 809 811 812 813 815 816
746 751 751 754 762 764 766 768 765 753 740 731 726 732 741 734 727 732 738 753 763 751 744 754 764 771 770 761 762 766 765 768 771 772 774 775 774 775 775 775 774 773 773 772 771 770 769 768 768 767 765 765 764 764 763 764 765 766 766 766 765 763 763 764 764 765 767 771 776 781 785 789 792 795 797 800 802 804 806 807 809 811 812 814 815 817
750 757 757 761 763 764 768 769 766 763 757 750 746 749 753 745 736 739 745 753 755 749 754 766 769 772 773 769 769 771 771 774 777 778 779 778 777 776 777 778 777 775 775 775 774 774 773 772 772 771 770 769 767 767 766 766 767 767 766 766 765 764 764 765 766 766 768 771 776 780 783 787 791 795 798 801 802 804 806 807 809 811 812 814 816 817
751 754 755 761 761 755 754 755 759 763 764 764 767 765 756 744 741 749 752 754 753 749 756 766 768 771 778 778 777 777 778 781 784 785 785 783 781 779 777 777 778 777 777 777 778 779 777 777 777 776 775 774 771 770 769 768 767 767 767 766 765 765 766 766 767 768 769 772 777 780 783 787 792 796 799 801 803 804 806 807 809 810 812 814 816 817
752 754 753 756 761 759 751 746 753 760 761 761 764 765 757 748 751 759 756 754 760 762 762 764 767 775 782 784 784 783 782 787 790 789 788 786 785 782 779 778 780 780 780 781 783 783 782 782 781 780 780 778 775 774 772 770 768 768 769 769 767 766 766 766 767 769 772 775 779 781 784 788 793 797 800 802 803 805 806 807 809 810 812 814 816 818
754 761 761 758 764 769 757 745 747 753 754 758 760 760 757 753 756 762 761 760 766 769 768 769 775 785 791 790 789 787 786 789 792 792 791 790 789 787 784 784 785 786 786 786 787 787 787 786 785 784 783 781 779 777 775 774 771 771 772 771 768 767 766 766 768 771 775 779 781 783 785 789 794 799 801 802 803 805 806 808 810 811 813 815 816 818
757 763 763 762 768 772 763 752 750 750 753 763 770 767 763 761 762 766 769 772 775 775 775 774 780 791 795 792 792 793 791 792 796 797 797 797 795 794 792 790 791 792 792 792 792 792 791 789 789 789 787 785 783 781 779 778 776 775 776 773 771 769 767 766 769 773 778 781 783 785 787 791 796 800 800 801 803 805 806 808 810 811 813 815 817 819
756 757 758 762 767 772 770 761 756 754 757 767 780 783 779 776 774 774 779 785 787 786 782 779 783 792 795 794 795 797 797 800 803 803 803 803 802 801 800 798 798 798 797 797 797 796 795 793 793 793 791 789 787 785 784 782 780 779 778 776 775 772 770 769 771 776 780 782 785 788 790 793 797 799 799 801 803 806 807 809 810 812 814 816 818 819
754 755 759 762 767 773 773 766 760 761 766 777 791 796 792 788 784 781 784 792 794 791 789 788 790 791 791 792 797 801 805 808 809 810 809 807 807 806 806 805 803 802 801 800 800 800 799 798 797 796 795 793 791 790 788 786 784 783 781 780 778 776 774 774 776 780 783 785 787 789 791 794 796 798 799 800 803 807 808 809 811 812 815 817 818 820
757 757 758 762 767 772 776 774 768 768 780 794 801 798 794 794 793 791 793 799 799 796 795 795 794 793 794 797 803 809 813 814 815 815 813 811 811 811 810 809 808 807 805 804 805 804 803 802 801 800 799 797 795 794 792 790 789 787 786 784 782 781 780 780 781 784 787 789 790 791 793 795 797 799 801 801 804 807 810 811 812 814 816 818 820 821
761 760 761 762 762 769 780 785 780 781 794 805 801 795 795 797 797 797 799 804 805 802 800 799 800 802 805 808 812 815 817 819 818 818 816 815 814 814 813 813 812 811 810 809 809 808 807 806 805 803 802 800 799 799 797 795 794 792 791 789 788 787 786 786 787 788 790 793 793 794 796 799 801 803 804 804 806 808 810 812 813 815 816 818 820 822
760 762 764 763 762 769 778 782 787 796 803 804 800 798 799 800 800 799 803 810 814 811 807 806 808 810 812 814 816 817 818 819 819 820 820 818 817 817 817 816 815 815 814 813 813 812 811 811 809 807 806 804 803 802 801 800 799 797 795 794 793 793 792 792 793 794 795 796 796 797 800 802 803 805 806 807 808 810 812 813 815 817 818 819 821 824
757 760 764 765 762 766 775 785 798 803 802 804 807 807 807 810 809 806 808 815 819 816 813 812 813 817 818 817 818 817 815 815 819 823 823 821 821 820 819 819 818 818 817 817 817 816 815 815 813 811 810 808 807 806 805 804 803 801 799 799 798 797 797 798 800 801 801 802 802 803 805 806 807 808 808 809 811 813 814 816 817 819 820 821 823 824
760 761 766 769 763 763 776 789 794 793 799 810 813 811 810 811 812 812 812 816 819 818 816 815 815 819 821 819 819 818 813 812 821 828 827 825 824 823 822 822 821 821 821 820 820 820 819 817 816 815 814 812 811 810 809 808 806 805 804 804 804 802 802 804 806 807 807 807 807 808 809 809 810 811 811 812 814 816 817 818 819 820 821 823 824 826
763 764 768 773 770 768 776 782 783 789 805 817 816 812 809 808 812 814 810 813 821 821 817 817 817 818 820 819 818 817 812 813 824 833 831 828 827 826 825 825 824 824 824 824 823 823 822 820 819 818 817 816 815 815 813 812 811 809 809 809 809 808 808 810 812 812 812 811 811 811 812 812 813 815 815 816 817 818 820 821 822 823 824 825 826 827
765 766 771 775 775 773 776 782 792 804 815 818 815 811 807 808 813 810 804 811 823 822 818 820 820 819 820 818 818 821 820 820 828 836 835 832 832 830 829 828 828 827 827 827 826 826 824 822 821 820 820 820 820 820 818 816 815 814 814 814 814 814 815 816 817 816 816 815 814 814 815 816 817 818 819 820 820 820 822 823 824 825 826 827 828 829
768 770 773 775 776 776 779 787 802 814 819 818 814 809 807 809 810 808 809 819 825 823 822 823 821 822 824 822 823 829 832 831 834 838 837 835 835 833 832 832 831 831 831 831 830 829 827 826 824 823 824 824 823 823 822 820 818 819 819 819 818 820 821 821 821 821 820 820 819 819 819 819 820 821 821 822 823 822 823 824 825 826 827 828 829 829
781 782 777 777 779 776 775 784 798 812 821 818 811 806 806 808 812 817 824 827 826 826 827 827 826 828 829 829 830 834 836 837 837 838 838 838 837 837 836 836 835 834 834 834 834 833 831 829 827 827 827 827 826 825 824 823 822 823 823 823 824 826 826 825 825 825 825 825 824 823 823 823 822 823 823 824 824 824 825 826 827 827 828 829 830 830
799 792 783 789 792 778 775 787 800 813 822 818 809 808 812 816 822 828 830 828 828 831 831 830 832 832 832 834 835 836 837 838 839 839 840 840 840 840 840 839 838 837 836 836 837 836 834 832 831 831 831 830 829 828 827 826 826 826 827 827 829 830 829 828 828 828 828 829 829 828 827 827 825 825 825 825 826 827 827 828 829 830 830 830 831 832
804 795 789 800 800 787 792 811 819 824 827 821 815 819 824 826 828 828 828 829 832 832 832 833 835 834 834 837 837 837 839 840 840 841 842 841 842 842 842 842 841 840 839 839 840 839 837 836 834 834 834 834 833 832 831 830 831 831 831 832 833 833 832 832 831 831 831 832 832 832 832 831 830 829 829 829 829 829 830 830 831 831 831 831 832 832
806 800 797 806 807 802 811 825 827 826 826 823 822 825 827 827 828 827 829 831 832 833 833 835 837 836 837 838 838 839 841 842 843 844 843 843 844 844 844 844 843 842 842 843 843 842 840 839 838 837 837 836 836 836 835 834 835 835 835 836 836 836 836 836 836 836 835 835 835 835 835 834 833 833 832 832 832 832 832 832 832 832 832 832 832 832
801 798 798 806 811 813 820 824 822 822 824 824 824 824 824 826 828 829 831 833 835 836 836 837 839 840 840 840 841 842 843 844 845 846 845 846 846 845 846 846 845 845 846 846 846 845 843 842 841 839 839 838 838 838 838 837 837 837 838 839 839 839 839 839 839 839 839 839 839 838 838 837 836 835 834 834 833 833 833 833 833 833 833 833 833 833
794 792 796 802 807 815 824 825 820 820 822 822 822 823 824 826 828 829 832 834 836 837 838 839 841 841 842 844 845 846 847 847 847 847 847 847 847 847 848 848 847 848 848 848 848 847 846 844 843 842 841 840 840 840 840 840 840 840 840 841 840 841 841 841 841 841 841 841 841 841 840 839 838 837 836 835 835 835 835 834 835 835 835 835 835 834
790 790 797 804 809 816 824 824 818 819 821 821 822 824 825 827 829 831 833 835 836 838 840 841 842 843 844 846 847 848 849 849 849 850 849 849 849 849 849 849 850 850 850 850 850 849 848 846 845 844 843 843 842 842 842 841 841 842 842 842 842 842 842 842 842 842 842 843 842 842 842 840 839 838 838 837 837 837 836 836 836 836 836 837 836 836
787 791 800 808 813 817 820 819 818 822 825 824 825 826 827 828 830 831 833 835 837 839 841 842 843 844 845 846 848 849 850 851 851 851 851 851 851 851 850 851 851 851 851 851 850 850 849 848 847 846 845 844 844 844 843 843 843 843 842 843 843 843 843 843 843 843 843 843 842 842 842 841 841 840 839 839 839 839 839 838 838 838 838 838 838 837
791 795 799 803 811 818 819 817 817 821 826 828 829 829 830 830 831 832 834 835 836 838 840 842 844 845 846 847 848 849 850 851 852 852 852 852 852 852 852 852 851 851 851 851 851 851 850 849 849 848 847 846 845 845 845 845 845 844 844 844 844 844 844 843 843 843 843 843 843 843 842 842 841 841 840 840 840 840 840 839 839 839 839 839 839 839
800 798 796 800 810 817 818 817 817 820 826 829 829 829 830 830 831 832 834 835 837 838 839 841 843 845 846 847 848 848 849 851 852 853 853 854 853 853 853 852 852 852 851 851 851 851 850 850 850 849 848 847 846 846 846 846 846 846 845 845 845 845 845 844 844 844 844 845 845 844 843 843 842 842 841 841 840 840 840 839 840 840 840 840 840 840
Wind_Speed
7 7 8 9 9 11 13 13 15 13 6 8 8 6 8 8 7 7 4 4 2 6 8 9 11 11 13 12 13 12 9 10 11 13 12 11 14 10 11 11 10 10 11 11 13 15 15 14 13 14 16 17 18 18 19 20 20 20 23 24 25 25 23 21 21 21 20 19 18 16 15 14 13 12 12 11 11 14 13 10 10 11 10 10 10 9
7 8 9 11 12 12 11 12 15 11 5 6 9 8 8 9 9 6 5 4 3 5 8 10 11 12 12 12 12 13 12 10 11 13 14 14 15 13 12 14 14 13 11 11 12 13 16 16 15 15 16 18 20 19 20 20 20 19 22 24 24 23 22 21 21 21 20 19 18 17 15 14 14 14 14 13 14 15 13 11 10 10 10 10 10 9
7 9 11 12 11 8 6 7 9 7 6 8 9 8 9 8 9 6 6 5 5 5 8 9 10 10 9 11 12 13 14 12 11 13 14 14 15 14 12 12 13 13 11 11 10 12 17 18 17 16 16 19 20 20 21 21 20 19 20 22 21 20 22 21 21 21 19 17 18 17 16 15 14 15 16 15 16 17 14 12 10 10 10 10 10 10
7 8 13 14 7 5 6 6 6 7 7 9 8 9 9 10 12 8 5 5 6 5 8 9 9 9 9 11 13 14 14 14 13 15 15 14 15 14 13 12 12 13 12 11 10 12 16 18 18 17 17 19 19 20 21 21 20 19 20 23 22 21 22 21 21 20 15 15 19 19 17 19 16 14 15 14 15 15 13 12 11 10 11 10 10 10
9 3 5 9 7 7 9 8 8 8 7 10 11 10 9 11 14 8 4 5 6 7 10 11 9 9 11 13 14 14 15 15 14 15 15 15 15 14 13 11 12 14 13 13 13 14 15 17 19 19 19 20 19 20 21 20 19 18 21 23 23 22 22 21 21 19 16 18 22 21 19 18 15 11 12 13 13 14 12 13 12 10 10 10 9 10
12 3 3 5 6 8 11 9 10 9 7 9 11 14 14 13 14 9 8 9 6 8 11 12 10 7 10 15 15 12 12 14 14 15 16 15 14 13 12 12 13 13 14 15 15 14 14 17 20 20 19 19 18 19 20 20 18 18 20 22 23 23 22 22 22 21 20 21 23 24 22 19 15 14 14 13 13 13 13 12 12 10 10 10 9 9
10 7 7 8 8 9 12 9 11 10 8 8 8 11 13 12 12 11 12 10 7 7 4 6 8 7 8 12 11 8 11 14 14 14 15 13 13 13 13 13 13 13 14 15 15 14 13 15 17 18 21 20 18 18 18 18 19 19 20 22 23 23 22 23 24 25 23 23 24 23 21 19 17 16 15 14 13 12 12 11 11 10 10 10 9 9
9 6 6 9 10 9 10 8 11 11 8 9 5 4 8 10 11 11 11 9 8 9 4 5 9 9 8 10 9 8 10 11 10 12 14 10 8 7 7 9 12 14 14 14 14 13 11 14 16 16 15 11 11 14 16 17 19 21 21 23 24 23 23 24 26 27 24 25 27 24 21 19 17 16 16 15 14 12 11 11 11 11 11 10 9 9
10 11 7 9 10 8 9 8 10 11 10 10 4 2 7 10 10 9 9 9 8 9 8 9 11 9 8 10 12 11 10 10 12 9 7 3 3 5 8 10 10 13 13 13 13 10 10 12 10 10 9 6 6 11 14 16 18 20 21 24 25 25 25 25 27 27 23 23 24 24 23 21 18 17 17 16 14 13 12 12 12 12 11 11 9 9
7 9 8 10 10 7 9 8 7 9 9 9 5 4 8 8 9 9 9 9 9 9 10 11 11 9 8 7 10 10 7 9 8 1 5 4 4 5 8 11 13 13 10 11 11 10 12 12 11 13 14 15 20 19 16 17 17 18 20 23 25 25 24 25 25 26 24 22 21 19 18 18 18 16 15 15 13 13 13 13 13 12 11 11 10 9
4 4 3 7 9 8 9 10 10 11 10 6 4 6 9 8 9 9 7 8 9 9 11 14 15 12 8 7 6 3 1 1 1 5 4 2 3 5 7 9 14 13 8 11 12 13 13 16 14 15 16 20 25 21 17 19 18 17 18 20 23 22 21 23 24 26 25 22 22 21 16 14 17 18 17 16 13 13 14 14 13 11 10 10 9 9
7 7 5 7 10 10 9 10 11 11 10 8 6 7 8 8 8 7 7 8 8 9 10 13 15 13 9 7 1 5 7 7 6 4 3 2 2 8 7 8 11 8 5 9 9 10 11 15 14 15 15 17 21 18 18 22 22 19 15 15 19 19 18 20 22 24 25 20 19 20 19 17 16 20 21 19 17 16 15 14 13 11 10 9 9 9
10 9 9 9 11 11 9 8 8 8 9 9 8 8 8 7 7 7 7 7 7 9 9 8 9 9 8 4 2 6 6 6 6 6 6 6 5 8 6 4 4 1 4 4 4 6 9 11 12 16 16 17 20 20 19 22 25 24 19 17 19 18 16 16 16 20 24 22 18 19 21 20 18 21 23 22 20 19 16 15 14 12 11 10 10 10
9 10 11 11 10 11 11 8 7 8 9 10 9 8 8 7 7 7 7 7 7 8 9 7 5 7 7 0 5 6 5 5 7 8 6 5 5 6 3 1 2 4 5 4 7 7 7 9 11 14 17 19 20 21 20 20 22 23 24 23 20 15 13 13 13 17 22 24 24 23 22 20 20 21 21 20 19 18 16 15 14 13 12 11 11 11
9 8 11 12 9 12 14 12 8 8 9 10 10 9 8 7 6 6 6 6 6 6 7 8 6 7 6 3 5 6 7 7 6 5 2 1 1 4 2 2 2 4 5 4 5 5 5 8 10 12 15 16 18 21 20 19 20 18 17 19 17 12 12 14 12 15 22 26 26 25 23 21 19 18 19 17 17 17 15 15 14 13 12 10 11 10
11 7 8 12 11 12 14 13 12 10 8 8 9 9 8 7 6 6 6 5 5 5 5 6 5 6 1 7 6 6 8 5 3 2 2 4 3 2 3 3 2 4 4 3 3 4 5 6 8 10 12 14 16 19 19 18 18 14 10 13 17 13 10 12 12 16 23 25 24 23 23 22 18 17 17 16 16 16 15 15 13 11 11 10 10 10
9 6 6 11 11 11 12 13 13 11 7 5 8 9 8 8 7 7 7 6 5 7 6 5 6 6 3 6 6 6 6 5 4 4 4 5 5 4 5 5 3 3 3 3 3 3 4 5 6 8 9 11 13 14 16 18 16 14 13 17 18 14 12 12 12 17 20 20 20 20 21 20 18 16 16 15 16 16 15 14 13 11 10 10 10 10
6 5 6 10 11 10 11 12 14 14 10 6 6 6 7 9 8 6 6 6 6 7 7 7 9 8 4 1 2 4 4 4 4 5 5 6 6 6 5 4 4 4 2 2 2 2 3 4 5 5 5 7 9 11 13 13 13 15 18 21 23 22 22 20 20 22 19 15 17 18 18 19 18 16 16 16 16 16 15 15 13 11 11 10 9 9
5 6 6 10 12 11 10 9 10 14 14 11 6 3 5 7 6 6 6 7 7 7 6 8 11 5 2 2 2 3 3 2 3 5 6 5 5 5 5 4 5 5 4 2 2 1 2 3 4 6 5 6 7 10 10 10 14 17 18 19 24 27 26 25 27 27 24 21 20 17 17 18 18 16 16 17 17 16 15 15 13 12 11 10 9 9
5 6 6 10 11 9 9 8 8 9 12 13 10 6 6 6 4 5 5 5 7 8 6 8 9 1 5 3 3 4 5 4 3 4 5 5 5 5 5 5 5 5 5 5 4 3 3 3 2 4 6 8 7 8 10 15 18 19 17 17 22 27 28 29 32 30 28 28 25 20 18 16 17 16 15 16 18 16 15 14 13 13 11 11 9 9
5 6 5 7 8 8 7 8 9 9 10 11 10 8 7 6 5 6 5 5 6 6 6 7 5 0 4 2 2 4 5 4 3 5 5 6 7 7 6 6 6 6 6 6 5 4 4 3 1 1 5 7 7 9 13 17 18 17 18 17 19 24 28 31 32 29 28 30 29 25 21 17 17 17 16 17 18 16 15 14 13 13 12 11 9 9
4 6 6 4 6 8 7 8 11 10 8 9 9 9 10 8 7 7 6 6 6 5 6 7 2 1 2 3 3 4 4 4 4 5 6 7 8 8 8 9 9 8 8 7 7 7 6 6 4 2 2 4 7 9 11 15 15 15 17 17 18 21 25 28 29 25 24 28 29 28 24 19 18 17 17 18 18 16 16 15 14 13 12 11 10 9
3 4 6 6 7 6 6 7 7 6 7 8 8 8 9 8 8 8 6 5 7 6 6 8 4 4 1 1 3 4 5 5 6 6 7 8 8 8 9 10 10 10 10 9 9 9 9 10 10 7 2 1 5 8 10 12 14 15 16 17 17 18 22 27 29 25 24 27 29 28 23 19 18 18 18 19 18 17 16 15 14 13 12 11 10 10
3 4 7 7 6 6 6 7 6 7 7 8 8 8 8 8 8 8 4 3 7 6 4 6 4 3 3 2 3 4 6 7 8 9 9 7 7 8 8 9 9 10 10 10 9 8 8 10 11 9 6 5 2 5 8 10 12 14 14 16 17 18 21 26 28 27 27 27 27 26 22 20 18 18 19 20 18 17 16 15 14 13 13 12 10 10
5 5 7 7 6 7 7 6 7 8 7 7 8 4 6 8 10 7 2 2 6 8 7 6 3 2 3 3 5 6 7 8 9 10 9 8 7 7 7 8 8 9 9 9 9 9 9 10 10 9 8 7 5 2 4 6 6 8 10 13 16 19 23 26 26 26 27 27 25 23 20 20 19 18 19 19 18 18 17 16 15 14 13 12 11 10
4 3 4 7 7 6 5 4 4 4 4 6 4 3 7 11 12 7 3 4 6 8 8 5 2 4 3 2 5 6 6 8 9 9 8 7 7 7 7 7 8 8 8 9 10 10 10 10 10 11 10 8 7 6 5 6 8 10 10 10 14 20 24 25 24 25 27 27 24 21 19 19 18 17 19 19 17 18 18 16 15 14 13 12 11 10
3 3 4 7 8 5 4 3 2 5 7 6 6 2 2 8 9 4 5 6 4 4 2 2 5 5 3 1 4 7 8 9 8 8 7 7 7 7 8 8 7 7 8 9 10 10 10 10 11 13 14 12 11 10 8 10 7 10 10 6 10 17 21 22 22 24 26 25 21 20 21 21 19 18 20 20 18 18 18 16 15 14 13 12 11 10
5 5 3 5 9 8 4 7 3 4 6 6 7 6 3 3 3 2 5 3 3 4 2 4 8 8 5 4 6 8 9 8 8 8 7 7 7 7 6 7 7 8 8 9 10 10 11 11 11 13 14 14 15 14 12 13 10 2 7 6 8 12 15 19 21 23 24 22 19 20 23 22 18 18 20 19 17 17 17 16 15 14 13 13 12 10
4 5 4 4 8 12 9 6 6 5 6 3 3 4 6 7 7 4 4 6 5 4 1 5 8 9 7 6 8 9 8 7 7 7 7 7 7 7 7 8 9 9 10 10 11 11 11 11 11 13 15 15 15 15 14 14 13 9 2 2 4 7 11 15 20 21 21 19 19 22 25 24 19 16 16 17 16 16 16 16 15 14 14 13 12 11
2 3 4 4 5 10 10 5 6 8 7 1 4 6 7 7 8 7 7 10 8 2 5 9 10 9 7 6 8 8 7 7 7 7 8 8 9 8 8 9 10 10 10 11 10 10 10 11 12 14 16 16 17 16 15 15 15 14 10 6 6 6 5 8 14 19 17 16 19 22 25 24 20 16 15 16 17 15 15 16 15 15 15 14 12 11
1 1 2 2 3 6 7 4 4 7 5 2 6 11 10 8 8 8 9 11 9 4 3 7 9 8 5 5 8 7 6 7 8 8 9 9 9 9 9 10 10 10 10 10 10 10 10 11 12 14 16 17 18 17 15 15 16 17 16 14 16 16 14 14 18 21 17 15 17 17 20 22 20 17 15 16 17 16 16 17 15 15 14 13 12 11
4 3 1 2 3 3 5 6 3 3 5 5 8 13 11 8 7 7 8 10 9 9 5 1 5 5 3 5 7 7 8 9 9 9 8 8 9 10 10 10 10 10 10 10 10 10 11 11 12 15 16 16 17 17 15 14 17 20 19 18 21 24 27 30 28 23 19 18 16 14 16 18 17 15 15 15 16 16 16 16 15 15 15 12 11 9
3 4 2 2 2 1 4 5 4 5 6 3 6 9 8 7 7 5 8 11 11 10 7 3 5 5 4 5 5 7 9 9 9 9 8 8 9 10 10 10 10 10 10 10 11 11 11 12 13 15 17 18 18 18 16 16 18 20 19 19 22 25 29 32 31 27 23 20 19 18 18 18 17 17 17 16 16 16 16 17 16 15 14 13 12 11
2 4 2 1 2 1 2 4 5 7 5 1 4 6 5 6 8 6 9 12 11 8 6 5 6 7 6 6 7 8 9 9 9 9 9 8 8 8 9 10 10 10 11 11 12 12 12 14 15 17 17 18 20 19 19 20 20 20 20 21 24 27 29 30 30 28 24 22 21 20 19 20 20 19 19 19 20 19 18 17 16 15 13 11 11 11
3 3 2 2 2 1 3 2 6 5 2 2 3 7 6 4 7 6 8 13 13 11 9 7 7 9 8 8 8 8 9 10 10 11 11 10 9 8 9 9 10 10 11 11 12 12 15 17 17 18 18 18 20 20 20 22 23 23 22 23 25 27 29 31 30 28 25 23 22 21 20 21 21 19 19 19 18 18 15 12 12 13 13 12 11 11
4 3 2 2 1 2 2 3 3 1 3 4 3 10 8 4 6 4 4 11 14 11 9 7 7 7 7 7 7 7 9 10 10 11 12 11 10 9 9 9 10 11 11 12 13 15 17 18 18 20 20 20 21 21 20 20 22 24 25 25 26 27 28 31 30 28 25 24 22 21 19 18 19 18 17 17 16 16 13 10 9 11 12 13 13 14
3 3 3 3 3 3 1 3 3 4 4 4 5 8 7 5 6 4 1 6 11 10 9 7 5 6 6 6 6 6 6 6 8 9 11 11 10 10 10 10 11 12 12 13 14 15 16 17 18 20 21 22 24 24 21 20 21 24 26 26 27 28 29 30 27 25 24 24 22 21 19 18 18 17 16 16 17 18 16 15 14 13 13 14 15 15
1 2 2 3 4 3 2 4 5 5 3 6 6 6 6 4 4 4 1 2 8 11 9 6 4 4 4 5 4 1 1 1 5 7 9 11 10 10 11 12 13 14 14 14 13 13 14 15 17 18 20 23 26 25 25 24 24 24 25 24 26 28 31 30 25 23 22 22 21 20 19 18 18 17 17 17 17 17 16 16 17 15 14 14 14 13
2 3 0 2 4 4 4 4 2 2 3 5 7 6 6 3 1 3 3 2 8 11 8 6 5 4 4 4 3 4 3 0 3 5 8 10 11 11 11 12 13 15 14 14 14 13 13 14 16 17 19 21 22 23 25 27 27 26 24 22 23 26 28 27 23 21 20 20 20 20 19 19 18 17 17 17 17 16 14 14 15 14 13 12 11 9
3 4 3 4 5 3 3 2 3 4 4 7 9 7 6 2 2 3 2 3 7 8 7 6 4 4 3 3 5 6 5 2 4 4 7 9 11 13 13 13 14 15 15 15 15 14 14 16 17 18 19 18 17 18 21 26 29 27 24 23 24 24 24 22 21 20 19 19 18 18 18 18 17 17 15 15 15 15 13 11 11 11 10 9 8 7
2 1 2 4 3 2 4 5 4 3 3 9 10 6 5 2 3 1 2 3 6 7 7 6 5 5 6 6 5 5 6 6 7 6 7 9 9 12 14 14 14 14 14 14 14 14 14 17 18 19 19 17 16 15 17 23 27 25 22 23 24 23 21 20 18 18 18 18 17 17 16 16 15 15 14 13 12 12 11 10 10 10 9 8 7 7
2 1 1 1 1 2 5 6 5 4 5 11 10 5 5 3 1 2 4 4 5 7 7 8 8 8 8 8 8 7 8 10 10 8 8 9 9 10 12 13 13 12 11 12 13 13 13 15 18 19 18 18 18 17 16 19 22 21 20 21 21 19 19 19 18 17 16 16 16 16 16 15 15 15 15 13 12 11 10 9 8 8 7 6 6 7
4 2 3 3 3 1 5 6 4 3 6 13 10 3 6 5 2 2 2 4 7 7 7 8 8 9 10 10 10 10 10 11 10 9 9 9 10 10 11 12 12 12 12 12 12 13 13 14 16 17 16 16 17 17 18 20 20 18 19 19 18 17 18 18 18 17 16 14 13 13 13 13 14 15 15 14 12 11 10 8 7 7 6 5 5 5
5 3 3 3 4 2 5 6 3 1 5 10 7 5 5 5 3 1 2 5 6 6 7 8 9 10 11 11 11 12 12 11 11 10 9 8 9 10 11 11 12 13 13 12 11 11 12 13 14 15 15 15 15 15 17 18 18 17 17 16 15 15 16 17 17 17 16 15 13 11 10 10 11 11 11 11 10 9 9 7 6 5 5 4 4 4
6 6 7 7 6 7 7 5 4 3 4 7 8 7 7 7 6 6 6 7 6 6 7 8 9 11 11 11 12 12 11 10 10 9 8 8 8 9 9 9 10 11 11 11 11 11 12 13 14 14 14 14 14 14 14 14 14 14 14 11 10 11 12 12 13 13 13 13 12 10 9 8 9 9 8 8 8 8 7 7 6 6 5 4 4 3
7 8 8 8 10 11 10 8 8 9 9 10 10 9 10 9 8 9 9 8 8 8 8 8 9 11 10 10 11 11 10 9 9 7 6 6 5 6 7 7 8 9 9 9 10 10 10 11 12 13 13 14 13 13 13 12 12 12 10 9 9 9 9 9 9 9 9 8 8 9 8 7 7 8 8 7 7 8 8 7 6 6 5 5 4 4
7 8 7 7 8 8 7 8 10 11 12 11 11 12 12 12 11 10 10 9 10 10 10 11 11 11 11 10 10 10 9 9 8 7 6 5 5 6 6 6 7 7 7 6 7 7 8 9 10 11 12 12 12 12 12 11 11 10 9 8 8 9 8 8 8 8 7 7 7 7 8 8 8 8 8 9 9 9 9 8 7 7 7 7 6 4
7 7 9 9 10 9 9 10 12 12 12 11 10 10 11 12 13 12 11 11 12 12 12 13 12 11 10 10 10 10 10 9 8 8 7 6 6 7 7 7 6 5 4 4 5 5 6 8 9 10 10 10 10 10 10 10 10 9 9 8 8 8 8 8 8 7 7 7 7 7 7 8 8 8 8 10 12 13 12 11 9 8 8 9 8 7
6 7 9 11 11 10 11 11 11 11 12 11 11 11 10 11 12 12 12 12 12 12 11 11 11 11 10 10 9 9 9 8 8 8 7 7 7 7 6 5 4 3 2 2 3 4 6 6 7 8 8 9 9 9 9 9 9 9 9 8 8 8 8 8 8 8 8 7 7 7 7 7 7 6 6 7 9 11 12 12 10 8 7 7 7 6
6 6 8 9 8 7 7 7 7 7 8 9 10 11 10 10 11 11 11 11 10 10 10 10 11 11 10 9 9 8 7 7 8 7 7 6 6 6 4 3 2 2 2 1 2 2 3 4 5 6 7 7 7 7 8 8 8 9 9 8 7 7 7 6 6 7 8 8 7 7 7 6 6 6 5 5 5 6 8 11 13 12 9 8 9 9
6 5 5 6 8 8 8 7 6 7 8 8 9 9 9 9 9 10 10 9 9 8 9 9 9 8 7 8 8 7 7 7 6 6 6 5 4 3 3 3 2 1 0 1 1 0 1 2 2 3 5 5 6 6 7 7 7 7 8 7 7 7 7 6 5 6 6 7 6 7 6 5 5 5 4 4 4 3 4 6 10 13 13 13 13 13
Wind_Direction
199 215 211 218 226 215 218 224 238 257 300 306 288 264 254 256 248 242 191 144 202 256 247 248 252 256 258 255 257 255 226 203 223 238 229 227 237 214 161 167 195 220 223 201 194 194 193 200 192 182 179 174 175 176 169 170 173 176 181 176 171 175 174 172 176 182 183 173 165 171 182 188 183 176 179 183 184 180 174 168 166 165 167 168 168 171
202 225 226 222 232 230 226 226 237 263 300 271 266 267 254 250 253 238 166 169 212 241 253 253 251 251 253 255 257 260 251 220 212 234 234 227 236 230 189 177 192 210 207 196 198 187 188 197 187 179 179 176 176 174 172 173 175 180 186 182 176 175 174 177 182 186 186 176 168 174 184 186 179 174 176 182 185 181 173 166 166 170 172 173 173 177
209 232 237 231 234 235 246 245 232 245 256 250 254 260 257 247 247 222 151 177 219 236 256 254 259 260 254 256 255 252 253 241 218 227 237 232 234 236 218 195 193 200 191 190 204 192 187 191 185 179 178 177 173 169 172 177 177 181 188 186 181 177 179 184 187 188 186 176 174 180 180 178 176 177 179 182 181 177 171 165 171 176 176 179 180 181
219 224 227 228 221 207 228 238 229 232 237 245 247 247 249 244 248 238 175 189 208 231 266 274 275 270 263 259 255 250 249 247 230 222 230 234 234 236 229 213 199 197 184 181 205 206 191 187 185 181 176 175 170 165 172 180 182 185 189 188 185 184 186 189 190 189 181 172 181 187 181 175 176 181 189 188 174 170 170 169 175 178 177 181 182 182
248 239 210 216 184 188 220 216 221 235 230 229 238 248 252 250 256 255 227 228 226 235 249 260 270 262 253 249 246 241 232 235 236 225 223 228 232 234 232 224 211 201 182 177 201 210 200 193 190 185 177 169 166 167 172 181 187 188 189 190 190 188 189 192 190 186 175 166 173 181 180 178 178 185 199 191 171 170 173 172 176 176 178 182 179 181
249 212 124 215 189 201 227 217 214 226 239 229 223 236 248 260 272 271 265 264 257 253 239 234 250 257 247 245 241 235 222 218 222 228 228 223 224 229 230 226 221 210 185 179 195 205 209 205 193 185 177 166 163 167 172 180 188 191 191 191 191 189 189 190 186 185 182 170 168 175 177 174 167 172 191 191 177 176 175 172 172 172 177 181 175 176
245 192 157 219 222 217 228 222 213 212 237 247 220 227 238 253 270 264 263 264 254 269 259 212 251 273 262 255 243 232 241 228 207 218 231 225 222 225 226 223 220 218 199 183 189 198 209 211 198 186 180 171 163 162 169 181 187 189 194 194 191 189 186 185 187 189 185 171 171 176 173 168 161 166 186 192 184 178 171 167 166 168 174 175 172 173
236 213 170 218 224 221 226 222 214 207 226 245 223 224 238 243 253 251 251 254 255 269 259 200 243 268 271 272 257 226 240 245 223 217 222 226 238 245 252 241 226 226 212 185 186 194 198 210 206 187 174 164 153 158 167 182 190 190 195 197 193 191 187 186 190 193 184 173 175 175 169 168 168 174 185 186 180 172 166 165 163 167 170 169 171 171
199 215 200 211 219 220 224 221 213 206 227 251 244 223 255 255 255 255 251 248 252 260 256 236 239 254 258 265 265 239 215 231 242 225 196 200 302 322 312 288 258 242 219 178 174 190 194 202 194 152 132 119 144 169 177 185 193 195 198 199 196 193 191 190 192 191 184 176 176 173 171 173 172 176 182 177 171 167 165 165 164 165 165 163 166 166
179 212 213 211 218 222 222 224 216 201 220 257 273 235 247 259 256 254 255 254 251 248 255 255 246 254 260 254 263 253 219 227 243 166 71 27 339 319 301 293 277 254 218 161 160 196 195 172 149 140 149 166 174 180 185 186 194 200 202 203 201 199 195 191 190 187 181 176 172 171 174 173 168 172 176 169 167 167 165 164 164 164 161 159 160 160
160 151 218 226 225 229 226 224 220 214 220 246 273 245 236 238 240 243 247 255 258 244 244 253 251 254 262 258 260 259 91 23 40 77 68 8 305 272 249 252 258 249 204 157 167 198 180 142 145 168 172 180 183 183 184 182 190 203 207 206 205 204 199 192 189 185 182 178 171 170 174 167 166 175 174 165 165 168 166 164 161 160 158 157 156 155
191 161 206 225 226 234 234 226 219 217 224 229 236 242 236 227 227 232 234 236 247 250 246 249 250 248 249 258 284 72 59 39 43 56 56 55 289 263 236 218 237 240 182 163 176 189 160 132 151 180 182 185 187 188 187 182 183 192 206 217 212 209 205 200 194 183 179 179 172 173 177 170 174 184 175 165 168 170 166 161 158 156 156 155 154 156
215 207 207 200 211 226 228 221 209 205 219 225 224 232 236 230 222 227 232 225 230 246 253 259 256 249 248 253 87 82 60 40 47 37 16 7 311 268 243 206 218 169 107 140 195 193 159 141 158 174 177 182 185 188 188 186 185 181 184 209 220 216 209 205 198 180 169 168 171 179 176 171 186 191 174 166 169 167 163 159 158 158 159 160 160 161
216 214 208 199 197 207 218 220 201 193 207 216 218 223 229 229 224 229 236 235 239 243 244 244 245 252 255 212 90 93 78 66 70 57 24 356 313 285 270 137 134 128 129 171 206 196 156 149 167 173 174 179 185 186 182 189 194 183 178 193 207 214 214 211 200 175 163 163 171 179 172 174 197 193 170 165 163 159 160 159 160 163 162 165 165 163
225 220 207 206 192 186 207 227 226 210 206 211 221 229 234 237 237 241 247 246 252 253 235 216 218 258 256 132 95 74 61 49 55 69 84 114 322 311 359 79 132 145 158 192 188 157 141 158 167 170 176 186 193 187 178 186 196 187 177 184 193 205 216 211 192 162 161 167 172 172 168 180 200 187 165 162 158 156 160 159 161 164 163 164 163 161
236 236 196 204 207 194 201 220 236 239 221 204 216 229 233 238 239 248 270 283 286 280 250 213 224 261 212 107 95 85 86 80 79 102 104 84 68 38 70 82 90 118 143 178 157 135 156 171 166 174 189 200 198 186 178 183 184 172 156 167 179 190 196 197 191 170 167 172 174 170 168 179 189 175 163 160 157 158 158 158 161 160 158 160 157 156
232 235 191 197 209 211 209 211 221 237 243 204 208 226 228 231 239 245 257 262 260 263 259 240 242 239 166 91 61 71 101 118 123 105 80 74 75 67 66 68 71 88 120 153 154 154 167 170 176 189 201 205 197 184 184 184 168 154 163 168 167 171 170 171 180 177 171 174 178 173 170 175 176 168 164 158 156 157 154 156 159 156 154 155 154 154
238 244 197 195 208 214 220 222 215 219 235 234 218 227 224 226 238 248 250 243 236 247 251 244 247 243 213 158 62 70 79 86 95 91 81 78 78 76 66 55 53 50 59 117 134 155 179 182 194 204 209 209 191 179 186 180 156 166 185 175 162 165 172 172 170 168 170 177 178 174 170 170 170 167 163 158 155 155 154 156 156 154 154 151 153 156
236 244 202 208 219 203 200 227 222 208 217 234 244 246 240 236 230 222 230 237 237 241 247 242 243 252 48 103 137 107 100 104 98 91 85 80 86 98 100 83 63 46 32 34 54 31 248 221 207 207 210 209 192 179 176 160 159 179 188 176 167 168 171 175 171 165 169 175 174 172 172 168 165 164 160 158 156 155 156 157 155 153 152 149 151 155
223 249 214 211 215 188 181 214 223 203 205 226 242 237 240 254 248 236 234 240 246 244 245 248 240 217 64 91 146 121 123 141 129 104 93 86 85 86 86 80 66 46 30 19 16 5 334 310 232 205 209 208 196 172 149 142 155 171 174 175 177 172 167 168 168 168 172 172 169 170 171 166 162 162 160 159 159 159 157 156 154 154 151 148 151 157
209 243 224 203 203 191 191 206 217 215 199 209 228 225 224 231 230 240 237 230 254 264 258 256 247 59 32 37 94 92 98 111 111 111 104 84 71 63 54 50 47 41 31 16 3 358 339 320 313 205 221 209 178 154 142 142 153 169 175 181 181 173 166 162 163 169 173 171 170 173 174 169 164 164 164 163 162 161 158 156 156 154 151 150 154 161
221 231 228 228 217 206 217 220 219 229 224 209 214 219 224 227 227 235 233 219 224 243 262 261 229 113 326 333 52 69 70 78 91 104 103 81 64 55 43 36 36 38 35 26 15 9 2 354 354 349 208 176 156 155 155 153 160 176 184 186 184 175 166 161 161 164 168 170 171 174 178 173 163 164 167 164 162 162 160 158 157 156 153 154 158 166
304 258 239 235 225 232 269 258 226 240 261 244 230 228 226 228 237 242 242 240 235 243 285 282 237 151 160 350 59 70 72 76 78 79 83 75 60 46 35 29 31 33 29 25 24 21 19 16 7 360 8 172 170 163 165 167 171 184 192 189 190 186 173 163 159 159 164 169 171 173 176 172 164 167 168 164 164 166 163 160 160 160 158 158 163 172
254 246 243 238 229 231 258 270 247 230 247 251 245 244 236 228 237 248 258 294 276 272 300 288 255 153 132 103 77 80 77 69 59 54 57 61 52 40 32 28 29 30 24 16 16 18 20 24 16 8 9 342 286 175 179 187 179 185 197 196 194 191 179 166 159 159 161 164 169 171 170 169 167 167 168 166 166 168 166 163 165 165 162 161 168 173
228 230 236 240 234 215 223 259 245 218 226 239 233 258 296 263 243 242 249 341 288 264 251 259 280 81 103 105 94 94 90 75 58 51 53 50 42 38 36 33 30 29 26 18 15 15 16 22 20 13 11 354 334 285 222 226 209 200 206 209 202 185 174 169 163 160 160 161 165 165 164 169 169 166 168 169 168 170 169 166 167 168 165 163 169 172
243 279 250 243 241 223 230 262 247 234 259 254 238 34 352 287 265 259 238 226 248 256 255 270 348 71 76 100 112 102 84 72 57 48 51 47 38 39 39 37 34 31 26 21 18 16 15 17 18 14 12 7 356 339 319 320 293 246 222 218 207 181 170 171 165 160 162 160 159 157 157 161 163 167 171 169 169 171 169 168 169 168 166 165 167 169
236 253 231 243 256 236 191 188 276 312 311 311 315 335 247 261 274 283 253 243 255 266 264 73 90 100 73 40 100 80 60 57 50 38 41 41 34 40 45 42 38 33 29 25 21 17 14 14 14 13 13 13 10 2 360 8 338 241 217 203 194 181 173 170 165 162 160 155 152 153 154 155 158 166 172 171 172 173 171 169 169 166 165 166 168 170
246 244 240 269 284 278 212 157 125 315 305 325 324 303 293 322 338 283 255 287 338 279 248 108 118 126 105 53 61 62 52 51 49 38 37 37 31 34 42 46 42 34 32 30 26 20 16 14 10 10 13 13 11 9 12 25 33 211 205 189 192 191 179 171 167 164 159 152 147 147 151 155 157 162 171 174 173 172 171 166 162 162 162 161 164 169
263 277 327 338 315 304 278 196 167 226 257 294 331 328 343 8 29 13 344 13 5 291 248 107 118 115 91 62 56 55 52 55 53 43 39 39 34 29 29 36 37 31 29 29 27 24 17 14 12 11 13 15 14 14 16 28 42 46 38 200 188 179 175 175 169 160 152 146 136 134 145 154 156 160 170 171 168 168 167 161 158 157 154 153 157 161
301 301 335 356 333 306 286 241 210 227 233 282 15 14 4 9 32 28 10 9 4 12 97 103 101 82 62 56 56 51 53 62 58 44 41 37 32 29 29 34 34 29 27 26 25 25 21 19 19 15 16 18 17 16 19 26 40 42 32 31 60 98 147 172 156 140 129 132 135 137 147 154 156 161 164 162 164 167 163 160 158 150 147 150 153 152
234 204 61 27 325 308 297 276 241 226 199 118 36 29 22 12 22 29 17 11 8 17 90 122 109 81 60 62 62 53 54 59 52 42 39 33 29 30 31 34 32 27 27 26 24 25 25 24 23 21 24 23 20 21 21 22 37 47 49 55 62 71 78 94 120 126 119 128 144 149 155 161 167 169 161 156 159 158 154 155 152 144 143 146 148 149
235 238 167 253 273 311 292 264 225 189 172 124 48 29 25 20 22 32 34 27 12 354 339 147 107 87 100 91 73 63 55 51 45 38 34 32 31 33 33 33 32 30 29 29 28 28 29 31 29 27 29 28 25 27 24 22 38 48 50 60 71 76 78 84 97 106 106 115 127 129 138 152 161 159 150 148 148 145 140 135 129 126 126 124 125 134
247 263 243 255 275 269 268 255 205 193 201 156 46 19 16 23 22 38 50 37 17 4 359 21 55 68 113 109 83 68 55 47 42 34 27 29 32 34 36 34 33 34 34 33 34 34 33 36 36 36 38 40 37 35 35 35 42 46 47 58 74 81 82 82 85 86 84 93 106 108 112 121 124 123 121 122 123 123 122 118 114 116 118 116 115 113
260 256 220 178 253 245 354 329 243 222 219 141 35 12 12 25 23 39 52 36 21 17 16 22 38 46 60 69 70 71 62 55 52 40 30 32 34 35 38 36 34 36 38 38 38 39 43 44 44 42 42 44 43 42 46 49 51 53 55 62 70 76 80 81 84 85 81 80 89 95 98 103 107 109 112 115 117 118 118 111 104 107 111 113 113 109
220 238 208 198 230 117 59 332 246 229 172 135 49 26 27 30 19 34 59 42 25 15 14 27 44 44 52 69 77 82 77 67 59 48 39 38 38 40 41 40 41 41 42 46 44 45 49 50 49 47 41 40 42 43 46 50 56 60 60 62 67 70 75 79 80 83 84 80 81 85 91 99 106 109 111 114 116 119 120 108 98 101 106 111 116 120
213 210 204 207 185 138 162 206 224 171 126 137 51 24 23 20 8 12 67 44 24 10 9 24 44 49 64 85 89 95 96 82 64 49 40 37 37 43 47 47 49 49 50 53 53 53 54 52 51 50 46 44 46 46 46 50 58 61 60 62 66 67 71 74 72 73 77 77 79 82 86 95 102 104 105 107 111 117 121 121 117 115 116 122 128 129
234 215 212 221 207 198 167 103 127 159 131 85 34 16 13 0 349 342 48 44 25 11 4 12 42 61 71 90 102 116 120 96 67 43 34 35 39 44 48 52 55 57 56 56 56 55 54 53 52 50 48 49 51 51 51 50 53 58 59 59 61 64 67 68 64 64 70 72 76 81 88 95 98 97 99 103 108 113 118 122 124 123 122 126 131 132
282 229 244 254 231 211 149 125 149 178 131 49 23 8 3 346 326 320 263 68 26 12 3 8 43 75 95 109 107 127 221 83 61 35 25 34 42 45 49 51 53 54 51 47 44 42 45 51 54 53 52 52 52 55 58 58 55 56 56 54 54 59 63 61 56 57 64 68 71 75 81 91 94 93 94 97 100 105 111 115 117 117 117 120 124 126
181 194 193 282 246 228 203 180 130 128 98 34 7 349 347 343 284 267 222 90 22 9 12 24 41 75 111 111 46 350 317 26 85 46 24 31 41 45 50 52 52 53 48 39 33 30 35 45 51 54 56 54 52 55 60 63 60 54 49 47 48 51 53 51 48 50 56 63 70 73 76 81 85 85 86 90 93 95 98 101 104 103 103 107 110 110
180 190 203 240 241 235 199 159 68 75 66 12 348 334 340 346 211 228 223 48 18 8 18 30 44 63 53 22 18 18 19 60 98 63 30 33 41 45 51 53 50 48 43 36 34 30 31 39 45 48 51 53 54 57 61 65 63 54 46 46 46 43 42 41 41 45 52 58 66 74 79 82 84 83 82 83 88 92 91 92 99 101 97 97 104 108
113 171 230 227 199 115 120 117 93 90 42 356 336 336 355 322 212 226 349 6 5 10 19 24 35 42 30 27 46 56 57 71 89 79 50 44 45 46 50 53 52 51 47 40 37 33 33 40 44 43 42 44 50 55 58 64 64 57 49 48 44 37 36 39 38 39 45 51 57 67 78 83 85 88 87 81 78 81 84 88 97 104 102 97 103 108
37 9 343 253 224 134 129 116 107 109 34 350 328 334 2 329 214 55 24 15 20 26 33 36 43 54 61 70 81 89 88 84 85 81 65 59 56 49 46 47 49 53 54 48 40 34 36 42 44 42 38 39 45 50 54 59 61 57 53 51 45 37 38 43 42 38 38 42 45 53 64 71 76 81 84 82 75 71 74 80 85 89 90 90 96 100
352 332 80 46 341 72 105 88 88 103 15 348 332 342 14 11 69 72 31 51 52 48 54 58 63 75 83 88 91 92 91 88 85 83 75 69 68 61 51 47 44 38 38 44 43 38 38 42 43 43 42 41 45 50 57 61 60 56 54 51 45 43 43 43 42 41 39 37 37 41 47 55 62 68 70 70 70 67 66 69 71 75 78 84 94 100
351 333 86 47 344 19 77 64 55 65 7 3 18 58 44 40 71 66 47 74 68 63 70 73 77 85 88 91 93 89 86 84 83 83 82 77 74 71 63 58 53 40 33 36 39 37 40 45 46 46 46 46 48 52 59 64 65 62 60 54 46 46 46 41 40 41 37 32 30 34 40 45 51 57 59 58 59 60 61 62 67 75 78 80 89 104
47 63 80 64 50 60 76 91 103 95 59 47 56 71 75 78 79 68 68 75 70 68 79 83 85 88 89 90 90 86 84 85 81 78 78 74 71 72 68 64 61 52 41 36 34 35 40 46 49 51 49 47 49 53 55 57 62 65 64 57 49 49 47 44 44 42 37 31 26 23 30 41 47 50 55 59 60 60 58 58 59 61 64 68 73 78
103 100 88 84 91 88 83 94 99 88 83 79 75 76 81 84 85 81 79 79 78 80 86 88 88 87 85 86 85 80 77 81 81 79 81 81 78 74 70 67 63 60 56 46 34 30 34 40 45 50 50 46 45 50 52 53 55 58 58 53 52 52 50 49 49 47 44 42 35 26 26 34 43 47 51 56 62 62 56 54 55 53 48 51 58 59
115 104 88 94 110 101 87 91 92 87 87 86 82 80 80 80 82 84 84 88 93 94 94 93 93 91 86 82 80 79 77 76 76 75 75 81 89 87 83 80 70 62 59 50 34 26 32 41 44 45 46 46 44 44 47 50 52 54 54 52 52 52 52 53 53 52 50 47 43 39 35 33 36 43 47 48 49 50 47 42 42 45 43 37 31 35
104 96 84 84 92 95 99 100 92 84 82 81 80 81 80 80 83 86 89 94 97 99 101 102 102 101 97 93 88 85 83 77 75 75 71 68 69 71 77 83 81 74 65 45 31 31 36 43 48 49 48 48 47 45 43 43 45 47 48 49 50 53 55 53 51 54 56 52 48 45 39 34 36 44 55 56 51 44 38 30 28 37 41 32 19 19
100 100 96 94 95 100 108 110 104 93 84 78 77 79 79 83 87 89 93 97 100 101 102 104 104 104 105 107 104 98 92 85 79 78 77 75 72 67 71 84 98 111 104 51 30 34 36 37 43 46 48 48 47 45 42 38 38 39 41 43 46 46 45 45 46 47 46 42 41 40 37 37 38 43 62 78 73 60 48 41 39 41 35 23 23 35
88 110 118 116 110 108 112 115 112 105 96 88 86 86 86 88 90 91 93 95 98 102 107 108 106 106 108 111 110 108 105 97 87 79 71 66 63 57 54 68 101 140 153 91 27 28 36 38 35 32 34 39 42 42 42 38 35 35 37 40 40 37 35 36 44 48 45 40 33 27 25 33 36 34 42 64 82 83 71 60 54 51 49 50 54 60
44 58 89 105 102 102 108 108 100 99 101 100 97 96 95 95 93 90 90 89 88 94 105 111 112 112 112 112 111 109 105 104 107 103 93 83 72 55 34 27 30 30 203 228 249 254 57 43 33 29 23 23 28 34 36 35 31 31 36 39 37 35 31 29 38 51 53 50 37 17 12 25 34 32 38 46 52 81 111 95 75 62 56 57 58 57